User: anonymous   Login
Location: Caltech
(34.1382°N, 118.1253°W)
Time: 17:25:33
(UTC-08:00)
Language:

TMSAT-1 - Orbit

View from above orbital plane
View from above orbital plane
View from above satellite
View from above satellite

Ground track
Ground track

The orbit data is extracted from the following two-line orbital elements,

1 25396U 98043C   18047.81311908 +.00000001 +00000-0 +19284-4 0  9999
2 25396 098.6141 351.6279 0002486 000.3223 359.7957 14.24470995018749
Epoch (UTC): 16 February 2018 19:30:53
Eccentricity: 0.0002486
inclination: 98.6141°
perigee height: 808 km
apogee height: 812 km
right ascension of ascending node: 351.6279°
argument of perigee: 0.3223°
revolutions per day: 14.24470995
mean anomaly at epoch: 359.7957°
orbit number at epoch: 1874

The dashed part of the orbit path shows where the satellite is in the earth's shadow,  

DLR